Wetterdaten: Montag, 12.01.2015
Datum Zeit Temperatur Luftfeuchte Luftdruck Regen Wind Richtung Richtung Taupunkt Windchill Windben
12.01.2015 00:00 -0,5 C 79 % 1026,8 hPa 0,0 l/m 12,4 km/h (3 Bft) NW 315 -3,7 C -11,1 C 11,7 km/h (2 Bft)
12.01.2015 00:05 -0,6 C 79 % 1026,8 hPa 0,0 l/m 12,1 km/h (2 Bft) W-SW 247 -3,8 C -10,7 C 11,4 km/h (2 Bft)
12.01.2015 00:10 -0,6 C 80 % 1026,8 hPa 0,0 l/m 11,3 km/h (2 Bft) W 270 -3,6 C -10,2 C 27,2 km/h (4 Bft)
12.01.2015 00:15 -0,7 C 81 % 1026,8 hPa 0,0 l/m 11,3 km/h (2 Bft) NW 315 -3,5 C -10,2 C 12,4 km/h (3 Bft)
12.01.2015 00:20 -0,7 C 82 % 1027,0 hPa 0,0 l/m 11,9 km/h (2 Bft) W-SW 247 -3,4 C -11,0 C 14,8 km/h (3 Bft)
12.01.2015 00:25 -0,7 C 83 % 1027,0 hPa 0,0 l/m 11,9 km/h (2 Bft) SW 225 -3,2 C -11,0 C 9,2 km/h (2 Bft)
12.01.2015 00:30 -0,7 C 83 % 1027,0 hPa 0,0 l/m 12,1 km/h (2 Bft) W-NW 292 -3,2 C -11,2 C 22,7 km/h (4 Bft)
12.01.2015 00:35 -0,7 C 84 % 1027,0 hPa 0,0 l/m 10,9 km/h (2 Bft) W-SW 247 -3,1 C -9,9 C 16,7 km/h (3 Bft)
12.01.2015 00:40 -0,7 C 84 % 1026,9 hPa 0,0 l/m 11,1 km/h (2 Bft) W 270 -3,1 C -10,1 C 9,5 km/h (2 Bft)
12.01.2015 00:45 -0,7 C 84 % 1026,9 hPa 0,0 l/m 11,6 km/h (2 Bft) W-SW 247 -3,1 C -10,6 C 9,8 km/h (2 Bft)
12.01.2015 00:50 -0,6 C 84 % 1026,9 hPa 0,0 l/m 11,9 km/h (2 Bft) W-SW 247 -3,0 C -10,8 C 31,5 km/h (5 Bft)
12.01.2015 00:55 -0,6 C 84 % 1026,9 hPa 0,0 l/m 11,4 km/h (2 Bft) W-SW 247 -3,0 C -10,2 C 5,1 km/h (1 Bft)
12.01.2015 01:00 -0,6 C 85 % 1026,9 hPa 0,0 l/m 9,5 km/h (2 Bft) W-SW 247 -2,8 C -7,9 C 13,8 km/h (3 Bft)
12.01.2015 01:05 -0,6 C 85 % 1026,9 hPa 0,0 l/m 10,0 km/h (2 Bft) W-SW 247 -2,8 C -8,5 C 17,2 km/h (3 Bft)
12.01.2015 01:10 -0,6 C 85 % 1026,9 hPa 0,0 l/m 12,2 km/h (2 Bft) W-SW 247 -2,8 C -11,2 C 14,6 km/h (3 Bft)
12.01.2015 01:15 -0,6 C 85 % 1026,9 hPa 0,0 l/m 12,1 km/h (2 Bft) W 270 -2,8 C -11,1 C 11,3 km/h (2 Bft)
12.01.2015 01:20 -0,6 C 84 % 1027,1 hPa 0,0 l/m 11,3 km/h (2 Bft) W 270 -3,0 C -10,2 C 16,4 km/h (3 Bft)
12.01.2015 01:25 -0,5 C 84 % 1027,1 hPa 0,0 l/m 11,3 km/h (2 Bft) W-SW 247 -2,9 C -10,2 C 13,2 km/h (3 Bft)
12.01.2015 01:30 -0,5 C 83 % 1027,1 hPa 0,0 l/m 9,7 km/h (2 Bft) W-SW 247 -3,0 C -8,0 C 10,0 km/h (2 Bft)
12.01.2015 01:35 -0,6 C 83 % 1027,1 hPa 0,0 l/m 8,9 km/h (2 Bft) W 270 -3,1 C -7,0 C 17,2 km/h (3 Bft)
12.01.2015 01:40 -0,6 C 83 % 1026,9 hPa 0,0 l/m 8,4 km/h (2 Bft) W-SW 247 -3,1 C -6,3 C 8,4 km/h (2 Bft)
12.01.2015 01:45 -0,7 C 83 % 1026,9 hPa 0,0 l/m 9,5 km/h (2 Bft) NW 315 -3,2 C -7,9 C 19,8 km/h (3 Bft)
12.01.2015 01:50 -0,7 C 84 % 1026,9 hPa 0,0 l/m 9,2 km/h (2 Bft) W-SW 247 -3,1 C -7,6 C 7,9 km/h (2 Bft)
12.01.2015 01:55 -0,7 C 84 % 1026,9 hPa 0,0 l/m 9,7 km/h (2 Bft) W 270 -3,1 C -8,4 C 19,5 km/h (3 Bft)
12.01.2015 02:00 -0,6 C 84 % 1026,9 hPa 0,0 l/m 10,6 km/h (2 Bft) W 270 -3,0 C -9,4 C 17,1 km/h (3 Bft)
12.01.2015 02:05 -0,6 C 84 % 1026,9 hPa 0,0 l/m 10,3 km/h (2 Bft) W 270 -3,0 C -9,0 C 14,6 km/h (3 Bft)
12.01.2015 02:10 -0,4 C 82 % 1026,9 hPa 0,0 l/m 9,2 km/h (2 Bft) W-SW 247 -3,1 C -7,5 C 13,0 km/h (3 Bft)
12.01.2015 02:15 -0,3 C 81 % 1026,9 hPa 0,0 l/m 10,6 km/h (2 Bft) SW 225 -3,2 C -9,1 C 25,3 km/h (4 Bft)
12.01.2015 02:20 -0,2 C 79 % 1027,2 hPa 0,0 l/m 12,6 km/h (3 Bft) W 270 -3,4 C -10,9 C 35,7 km/h (5 Bft)
12.01.2015 02:25 -0,1 C 78 % 1027,2 hPa 0,0 l/m 11,4 km/h (2 Bft) W-SW 247 -3,5 C -9,6 C 9,3 km/h (2 Bft)
12.01.2015 02:30 -0,1 C 77 % 1027,2 hPa 0,0 l/m 9,8 km/h (2 Bft) NW 315 -3,6 C -7,5 C 10,9 km/h (2 Bft)
12.01.2015 02:35 0,0 C 76 % 1027,2 hPa 0,0 l/m 11,9 km/h (2 Bft) S-SW 202 -3,7 C -9,9 C 11,1 km/h (2 Bft)
12.01.2015 02:40 0,0 C 76 % 1027,5 hPa 0,0 l/m 12,2 km/h (2 Bft) W-SW 247 -3,7 C -10,1 C 17,5 km/h (3 Bft)
12.01.2015 02:45 0,0 C 76 % 1027,5 hPa 0,0 l/m 10,5 km/h (2 Bft) W-SW 247 -3,7 C -8,2 C 11,6 km/h (2 Bft)
12.01.2015 02:50 0,1 C 75 % 1027,5 hPa 0,0 l/m 10,3 km/h (2 Bft) SW 225 -3,8 C -7,9 C 10,3 km/h (2 Bft)
12.01.2015 02:55 0,1 C 75 % 1027,5 hPa 0,0 l/m 10,6 km/h (2 Bft) W-SW 247 -3,8 C -8,2 C 12,1 km/h (2 Bft)
12.01.2015 03:00 0,1 C 75 % 1027,4 hPa 0,0 l/m 10,1 km/h (2 Bft) W-NW 292 -3,8 C -7,6 C 9,8 km/h (2 Bft)
12.01.2015 03:05 0,1 C 75 % 1027,4 hPa 0,0 l/m 9,5 km/h (2 Bft) W-SW 247 -3,8 C -6,8 C 6,8 km/h (2 Bft)
12.01.2015 03:10 0,1 C 75 % 1027,4 hPa 0,0 l/m 9,0 km/h (2 Bft) W 270 -3,8 C -6,1 C 19,3 km/h (3 Bft)
12.01.2015 03:15 0,1 C 74 % 1027,4 hPa 0,0 l/m 10,8 km/h (2 Bft) W 270 -4,0 C -8,4 C 16,3 km/h (3 Bft)
12.01.2015 03:20 0,1 C 74 % 1027,2 hPa 0,0 l/m 10,0 km/h (2 Bft) W 270 -4,0 C -7,4 C 8,7 km/h (2 Bft)
12.01.2015 03:25 0,1 C 75 % 1027,2 hPa 0,0 l/m 9,5 km/h (2 Bft) W 270 -3,8 C -6,8 C 14,8 km/h (3 Bft)
12.01.2015 03:30 0,1 C 75 % 1027,2 hPa 0,0 l/m 7,6 km/h (2 Bft) W-SW 247 -3,8 C -4,3 C 6,1 km/h (2 Bft)
12.01.2015 03:35 0,1 C 75 % 1027,2 hPa 0,0 l/m 7,1 km/h (2 Bft) W-SW 247 -3,8 C -3,6 C 6,8 km/h (2 Bft)
12.01.2015 03:40 0,2 C 74 % 1027,2 hPa 0,0 l/m 8,5 km/h (2 Bft) W 270 -3,9 C -5,5 C 24,3 km/h (4 Bft)
12.01.2015 03:45 0,2 C 73 % 1027,2 hPa 0,0 l/m 10,8 km/h (2 Bft) W 270 -4,1 C -8,4 C 18,2 km/h (3 Bft)
12.01.2015 03:50 0,2 C 73 % 1027,2 hPa 0,0 l/m 12,6 km/h (3 Bft) W 270 -4,1 C -10,2 C 17,1 km/h (3 Bft)
12.01.2015 03:55 0,2 C 72 % 1027,2 hPa 0,0 l/m 11,6 km/h (2 Bft) W 270 -4,2 C -9,1 C 18,2 km/h (3 Bft)
12.01.2015 04:00 0,2 C 72 % 1027,2 hPa 0,0 l/m 9,7 km/h (2 Bft) W 270 -4,2 C -6,7 C 16,7 km/h (3 Bft)
12.01.2015 04:05 0,3 C 71 % 1027,2 hPa 0,0 l/m 10,9 km/h (2 Bft) SW 225 -4,3 C -8,3 C 15,0 km/h (3 Bft)
12.01.2015 04:10 0,2 C 71 % 1027,2 hPa 0,0 l/m 10,0 km/h (2 Bft) W-SW 247 -4,4 C -7,4 C 9,0 km/h (2 Bft)
12.01.2015 04:15 0,2 C 70 % 1027,2 hPa 0,0 l/m 8,7 km/h (2 Bft) W 270 -4,6 C -5,7 C 13,7 km/h (3 Bft)
12.01.2015 04:20 0,3 C 69 % 1027,5 hPa 0,0 l/m 9,8 km/h (2 Bft) SW 225 -4,7 C -7,0 C 5,1 km/h (1 Bft)
12.01.2015 04:25 0,4 C 68 % 1027,5 hPa 0,0 l/m 10,6 km/h (2 Bft) W-SW 247 -4,8 C -7,9 C 8,0 km/h (2 Bft)
12.01.2015 04:30 0,3 C 68 % 1027,5 hPa 0,0 l/m 10,5 km/h (2 Bft) W-SW 247 -4,9 C -7,7 C 12,4 km/h (3 Bft)
12.01.2015 04:35 0,4 C 68 % 1027,5 hPa 0,0 l/m 11,4 km/h (2 Bft) W 270 -4,8 C -8,7 C 13,0 km/h (3 Bft)
12.01.2015 04:40 0,4 C 68 % 1027,3 hPa 0,0 l/m 13,2 km/h (3 Bft) W-SW 247 -4,8 C -10,4 C 13,4 km/h (3 Bft)
12.01.2015 04:45 0,3 C 68 % 1027,3 hPa 0,0 l/m 13,7 km/h (3 Bft) W 270 -4,9 C -11,0 C 20,8 km/h (4 Bft)
12.01.2015 04:50 0,3 C 68 % 1027,3 hPa 0,0 l/m 11,6 km/h (2 Bft) W 270 -4,9 C -8,9 C 15,8 km/h (3 Bft)
12.01.2015 04:55 0,2 C 69 % 1027,3 hPa 0,0 l/m 10,6 km/h (2 Bft) W 270 -4,8 C -8,0 C 11,3 km/h (2 Bft)
12.01.2015 05:00 0,3 C 69 % 1027,2 hPa 0,0 l/m 11,3 km/h (2 Bft) W 270 -4,7 C -8,6 C 12,7 km/h (3 Bft)
12.01.2015 05:05 0,2 C 69 % 1027,2 hPa 0,0 l/m 10,9 km/h (2 Bft) SW 225 -4,8 C -8,5 C 15,8 km/h (3 Bft)
12.01.2015 05:10 0,2 C 69 % 1027,2 hPa 0,0 l/m 10,8 km/h (2 Bft) W-SW 247 -4,8 C -8,0 C 11,1 km/h (2 Bft)
12.01.2015 05:15 0,2 C 70 % 1027,2 hPa 0,0 l/m 10,6 km/h (2 Bft) W 270 -4,6 C -8,1 C 15,6 km/h (3 Bft)
12.01.2015 05:20 0,2 C 70 % 1027,2 hPa 0,0 l/m 10,1 km/h (2 Bft) W 270 -4,6 C -7,5 C 15,4 km/h (3 Bft)
12.01.2015 05:25 0,2 C 70 % 1027,2 hPa 0,0 l/m 11,1 km/h (2 Bft) W 270 -4,6 C -8,7 C 15,9 km/h (3 Bft)
12.01.2015 05:30 0,2 C 70 % 1027,2 hPa 0,0 l/m 11,4 km/h (2 Bft) W-SW 247 -4,6 C -9,0 C 15,1 km/h (3 Bft)
12.01.2015 05:35 0,2 C 70 % 1027,2 hPa 0,0 l/m 10,8 km/h (2 Bft) W-SW 247 -4,6 C -8,4 C 9,0 km/h (2 Bft)
12.01.2015 05:40 0,1 C 70 % 1027,2 hPa 0,0 l/m 8,9 km/h (2 Bft) W-SW 247 -4,7 C -6,0 C 9,2 km/h (2 Bft)
12.01.2015 05:45 0,1 C 71 % 1027,2 hPa 0,0 l/m 7,7 km/h (2 Bft) W-SW 247 -4,5 C -4,6 C 8,9 km/h (2 Bft)
12.01.2015 05:50 0,0 C 71 % 1027,2 hPa 0,0 l/m 7,2 km/h (2 Bft) W 270 -4,6 C -3,8 C 8,5 km/h (2 Bft)
12.01.2015 05:55 0,0 C 71 % 1027,2 hPa 0,0 l/m 7,4 km/h (2 Bft) SW 225 -4,6 C -4,1 C 4,8 km/h (1 Bft)
12.01.2015 06:00 0,0 C 72 % 1027,1 hPa 0,0 l/m 7,4 km/h (2 Bft) W 270 -4,4 C -4,1 C 14,5 km/h (3 Bft)
12.01.2015 06:05 0,0 C 72 % 1027,1 hPa 0,0 l/m 7,1 km/h (2 Bft) W 270 -4,4 C -3,7 C 11,4 km/h (2 Bft)
12.01.2015 06:10 -0,1 C 73 % 1027,1 hPa 0,0 l/m 6,9 km/h (2 Bft) NO 45 -4,3 C -3,6 C 14,2 km/h (3 Bft)
12.01.2015 06:15 -0,1 C 73 % 1027,1 hPa 0,0 l/m 6,6 km/h (2 Bft) SW 225 -4,3 C -3,1 C 10,5 km/h (2 Bft)
12.01.2015 06:20 -0,1 C 73 % 1027,1 hPa 0,0 l/m 6,9 km/h (2 Bft) W 270 -4,3 C -3,7 C 12,6 km/h (3 Bft)
12.01.2015 06:25 -0,1 C 73 % 1027,1 hPa 0,0 l/m 7,2 km/h (2 Bft) W-SW 247 -4,3 C -4,1 C 10,3 km/h (2 Bft)
12.01.2015 06:30 -0,1 C 73 % 1027,1 hPa 0,0 l/m 6,9 km/h (2 Bft) W 270 -4,3 C -3,8 C 10,1 km/h (2 Bft)
12.01.2015 06:35 -0,1 C 73 % 1027,1 hPa 0,0 l/m 6,4 km/h (2 Bft) W-SW 247 -4,3 C -3,1 C 6,1 km/h (2 Bft)
12.01.2015 06:40 -0,3 C 73 % 1027,0 hPa 0,0 l/m 5,0 km/h (1 Bft) SW 225 -4,5 C -2,4 C 3,1 km/h (1 Bft)
12.01.2015 06:45 -0,3 C 74 % 1027,0 hPa 0,0 l/m 4,3 km/h (1 Bft) W 270 -4,4 C -2,2 C 4,7 km/h (1 Bft)
12.01.2015 06:50 -0,3 C 74 % 1027,0 hPa 0,0 l/m 4,3 km/h (1 Bft) W-SW 247 -4,4 C -2,3 C 6,1 km/h (2 Bft)
12.01.2015 06:55 -0,3 C 74 % 1027,0 hPa 0,0 l/m 4,0 km/h (1 Bft) W 270 -4,4 C -1,9 C 3,2 km/h (1 Bft)
12.01.2015 07:00 -0,3 C 74 % 1026,9 hPa 0,0 l/m 4,7 km/h (1 Bft) W 270 -4,4 C -2,3 C 7,9 km/h (2 Bft)
12.01.2015 07:05 -0,3 C 74 % 1026,9 hPa 0,0 l/m 5,0 km/h (1 Bft) W-SW 247 -4,4 C -2,4 C 4,5 km/h (1 Bft)
12.01.2015 07:10 -0,4 C 75 % 1026,9 hPa 0,0 l/m 4,7 km/h (1 Bft) S-SW 202 -4,3 C -2,4 C 6,0 km/h (2 Bft)
12.01.2015 07:15 -0,3 C 75 % 1026,9 hPa 0,0 l/m 4,7 km/h (1 Bft) S-SO 157 -4,2 C -2,4 C 7,4 km/h (2 Bft)
12.01.2015 07:20 -0,4 C 75 % 1026,8 hPa 0,0 l/m 4,7 km/h (1 Bft) SW 225 -4,3 C -2,4 C 3,9 km/h (1 Bft)
12.01.2015 07:25 -0,4 C 75 % 1026,8 hPa 0,0 l/m 4,5 km/h (1 Bft) W-SW 247 -4,3 C -2,5 C 5,5 km/h (1 Bft)
12.01.2015 07:30 -0,6 C 75 % 1026,8 hPa 0,0 l/m 3,9 km/h (1 Bft) SW 225 -4,5 C -2,2 C 3,2 km/h (1 Bft)
12.01.2015 07:35 -0,6 C 75 % 1026,8 hPa 0,0 l/m 3,5 km/h (1 Bft) S-SW 202 -4,5 C -2,2 C 3,1 km/h (1 Bft)
12.01.2015 07:40 -0,8 C 75 % 1026,5 hPa 0,0 l/m 2,3 km/h (1 Bft) S 180 -4,7 C -1,3 C 3,4 km/h (1 Bft)
12.01.2015 07:45 -0,8 C 75 % 1026,5 hPa 0,0 l/m 1,4 km/h (1 Bft) W-SW 247 -4,7 C -1,4 C 3,1 km/h (1 Bft)
12.01.2015 07:50 -0,7 C 76 % 1026,5 hPa 0,0 l/m 1,9 km/h (1 Bft) W-SW 247 -4,4 C -1,4 C 0,0 km/h (0 Bft)
12.01.2015 07:55 -0,8 C 76 % 1026,5 hPa 0,0 l/m 2,1 km/h (1 Bft) S-SW 202 -4,5 C -1,3 C 4,8 km/h (1 Bft)
12.01.2015 08:00 -0,7 C 76 % 1026,5 hPa 0,0 l/m 1,4 km/h (1 Bft) W-SW 247 -4,4 C -1,3 C 2,3 km/h (1 Bft)
12.01.2015 08:05 -0,8 C 76 % 1026,5 hPa 0,0 l/m 1,4 km/h (1 Bft) SW 225 -4,5 C -1,3 C 3,9 km/h (1 Bft)
12.01.2015 08:10 -0,7 C 76 % 1026,5 hPa 0,0 l/m 1,6 km/h (1 Bft) W-SW 247 -4,4 C -1,3 C 3,1 km/h (1 Bft)
12.01.2015 08:15 -0,7 C 76 % 1026,5 hPa 0,0 l/m 2,3 km/h (1 Bft) SW 225 -4,4 C -1,3 C 4,3 km/h (1 Bft)
12.01.2015 08:20 -0,6 C 76 % 1026,4 hPa 0,0 l/m 2,7 km/h (1 Bft) SW 225 -4,3 C -1,7 C 4,7 km/h (1 Bft)
12.01.2015 08:25 -0,5 C 76 % 1026,4 hPa 0,0 l/m 3,1 km/h (1 Bft) S 180 -4,2 C -1,8 C 4,2 km/h (1 Bft)
12.01.2015 08:30 -0,5 C 76 % 1026,4 hPa 0,0 l/m 3,2 km/h (1 Bft) S-SW 202 -4,2 C -1,8 C 4,7 km/h (1 Bft)
12.01.2015 08:35 -0,4 C 76 % 1026,4 hPa 0,0 l/m 2,9 km/h (1 Bft) W 270 -4,1 C -1,5 C 5,3 km/h (1 Bft)
12.01.2015 08:40 -0,4 C 76 % 1026,4 hPa 0,0 l/m 2,7 km/h (1 Bft) W-SW 247 -4,1 C -1,2 C 3,5 km/h (1 Bft)
12.01.2015 08:45 -0,4 C 76 % 1026,4 hPa 0,0 l/m 2,1 km/h (1 Bft) W 270 -4,1 C -0,9 C 1,8 km/h (1 Bft)
12.01.2015 08:50 -0,3 C 76 % 1026,4 hPa 0,0 l/m 2,4 km/h (1 Bft) S 180 -4,0 C -0,8 C 0,0 km/h (0 Bft)
12.01.2015 08:55 -0,3 C 76 % 1026,4 hPa 0,0 l/m 2,4 km/h (1 Bft) S 180 -4,0 C -0,8 C 4,0 km/h (1 Bft)
12.01.2015 09:00 -0,2 C 75 % 1026,2 hPa 0,0 l/m 2,3 km/h (1 Bft) W 270 -4,1 C -0,7 C 2,9 km/h (1 Bft)
12.01.2015 09:05 -0,2 C 75 % 1026,2 hPa 0,0 l/m 2,7 km/h (1 Bft) S-SW 202 -4,1 C -1,1 C 2,1 km/h (1 Bft)
12.01.2015 09:10 -0,1 C 75 % 1026,2 hPa 0,0 l/m 2,9 km/h (1 Bft) SW 225 -4,0 C -1,1 C 3,5 km/h (1 Bft)
12.01.2015 09:15 -0,1 C 75 % 1026,2 hPa 0,0 l/m 2,6 km/h (1 Bft) W-SW 247 -4,0 C -0,8 C 4,0 km/h (1 Bft)
12.01.2015 09:20 0,1 C 75 % 1026,3 hPa 0,0 l/m 2,6 km/h (1 Bft) S-SO 157 -3,8 C -0,6 C 0,0 km/h (0 Bft)
12.01.2015 09:25 0,2 C 75 % 1026,3 hPa 0,0 l/m 2,3 km/h (1 Bft) W-SW 247 -3,7 C -0,4 C 5,0 km/h (1 Bft)
12.01.2015 09:30 0,3 C 74 % 1026,3 hPa 0,0 l/m 2,3 km/h (1 Bft) SW 225 -3,8 C -0,2 C 5,0 km/h (1 Bft)
12.01.2015 09:35 0,3 C 74 % 1026,3 hPa 0,0 l/m 3,5 km/h (1 Bft) SW 225 -3,8 C -0,8 C 2,1 km/h (1 Bft)
12.01.2015 09:40 0,3 C 74 % 1026,6 hPa 0,0 l/m 2,7 km/h (1 Bft) O-SO 112 -3,8 C -0,3 C 3,7 km/h (1 Bft)
12.01.2015 09:45 0,4 C 74 % 1026,6 hPa 0,0 l/m 1,6 km/h (1 Bft) W-SW 247 -3,7 C 0,0 C 0,0 km/h (0 Bft)
12.01.2015 09:50 0,5 C 74 % 1026,6 hPa 0,0 l/m 0,5 km/h (0 Bft) W-SW 247 -3,6 C 0,2 C 0,0 km/h (0 Bft)
12.01.2015 09:55 0,6 C 73 % 1026,6 hPa 0,0 l/m 0,8 km/h (0 Bft) S 180 -3,7 C 0,3 C 4,5 km/h (1 Bft)
12.01.2015 10:00 0,8 C 73 % 1026,4 hPa 0,0 l/m 1,8 km/h (1 Bft) SW 225 -3,5 C 0,5 C 1,9 km/h (1 Bft)
12.01.2015 10:05 0,9 C 73 % 1026,4 hPa 0,0 l/m 1,6 km/h (1 Bft) S 180 -3,4 C 0,7 C 1,8 km/h (1 Bft)
12.01.2015 10:10 1,1 C 73 % 1026,4 hPa 0,0 l/m 0,3 km/h (0 Bft) W-SW 247 -3,2 C 0,9 C 0,0 km/h (0 Bft)
12.01.2015 10:15 1,1 C 72 % 1026,4 hPa 0,0 l/m 0,5 km/h (0 Bft) W-SW 247 -3,4 C 1,0 C 0,0 km/h (0 Bft)
12.01.2015 10:20 1,2 C 71 % 1026,1 hPa 0,0 l/m 1,9 km/h (1 Bft) SW 225 -3,5 C 1,1 C 5,3 km/h (1 Bft)
12.01.2015 10:25 1,3 C 71 % 1026,1 hPa 0,0 l/m 2,4 km/h (1 Bft) SW 225 -3,4 C 1,3 C 3,1 km/h (1 Bft)
12.01.2015 10:30 1,5 C 70 % 1026,1 hPa 0,0 l/m 2,3 km/h (1 Bft) W-SW 247 -3,4 C 1,3 C 3,2 km/h (1 Bft)
12.01.2015 10:35 1,6 C 69 % 1026,1 hPa 0,0 l/m 2,1 km/h (1 Bft) W-SW 247 -3,5 C 1,5 C 0,0 km/h (0 Bft)
12.01.2015 10:40 1,6 C 68 % 1025,9 hPa 0,0 l/m 2,7 km/h (1 Bft) SW 225 -3,7 C 1,6 C 2,6 km/h (1 Bft)
12.01.2015 10:45 1,6 C 68 % 1025,9 hPa 0,0 l/m 2,4 km/h (1 Bft) SW 225 -3,7 C 1,8 C 2,9 km/h (1 Bft)
12.01.2015 10:50 1,6 C 68 % 1025,9 hPa 0,0 l/m 3,2 km/h (1 Bft) W 270 -3,7 C 1,3 C 3,2 km/h (1 Bft)
12.01.2015 10:55 1,8 C 68 % 1025,9 hPa 0,0 l/m 2,9 km/h (1 Bft) W-SW 247 -3,5 C 1,7 C 4,8 km/h (1 Bft)
12.01.2015 11:00 1,9 C 67 % 1025,8 hPa 0,0 l/m 1,6 km/h (1 Bft) W 270 -3,6 C 2,0 C 2,7 km/h (1 Bft)
12.01.2015 11:05 2,1 C 67 % 1025,8 hPa 0,0 l/m 1,8 km/h (1 Bft) W-SW 247 -3,4 C 2,1 C 2,1 km/h (1 Bft)
12.01.2015 11:10 2,4 C 67 % 1025,8 hPa 0,0 l/m 1,0 km/h (0 Bft) S 180 -3,1 C 2,5 C 0,0 km/h (0 Bft)
12.01.2015 11:15 2,4 C 67 % 1025,8 hPa 0,0 l/m 1,0 km/h (0 Bft) W-SW 247 -3,1 C 2,8 C 1,8 km/h (1 Bft)
12.01.2015 11:20 2,5 C 66 % 1025,6 hPa 0,0 l/m 2,4 km/h (1 Bft) W-SW 247 -3,2 C 2,9 C 2,7 km/h (1 Bft)
12.01.2015 11:25 2,4 C 65 % 1025,6 hPa 0,0 l/m 2,7 km/h (1 Bft) SW 225 -3,5 C 2,8 C 1,9 km/h (1 Bft)
12.01.2015 11:30 2,4 C 66 % 1025,6 hPa 0,0 l/m 1,9 km/h (1 Bft) W-SW 247 -3,3 C 2,9 C 0,0 km/h (0 Bft)
12.01.2015 11:35 2,4 C 65 % 1025,6 hPa 0,0 l/m 1,1 km/h (1 Bft) S 180 -3,5 C 2,8 C 3,1 km/h (1 Bft)
12.01.2015 11:40 2,5 C 65 % 1024,9 hPa 0,0 l/m 1,4 km/h (1 Bft) W-SW 247 -3,4 C 2,8 C 1,9 km/h (1 Bft)
12.01.2015 11:45 2,8 C 66 % 1024,9 hPa 0,0 l/m 1,3 km/h (1 Bft) S-SW 202 -2,9 C 2,9 C 0,0 km/h (0 Bft)
12.01.2015 11:50 2,7 C 63 % 1024,9 hPa 0,0 l/m 0,3 km/h (0 Bft) S-SO 157 -3,6 C 3,4 C 0,0 km/h (0 Bft)
12.01.2015 11:55 3,1 C 63 % 1024,9 hPa 0,0 l/m 0,2 km/h (0 Bft) S-SO 157 -3,2 C 3,5 C 0,0 km/h (0 Bft)
12.01.2015 12:00 3,3 C 63 % 1025,1 hPa 0,0 l/m 0,5 km/h (0 Bft) S 180 -3,1 C 3,8 C 0,0 km/h (0 Bft)
12.01.2015 12:05 3,3 C 62 % 1025,1 hPa 0,0 l/m 0,3 km/h (0 Bft) S-SO 157 -3,3 C 3,9 C 0,0 km/h (0 Bft)
12.01.2015 12:10 3,4 C 62 % 1025,1 hPa 0,0 l/m 0,0 km/h (0 Bft) S-SO 157 -3,2 C 4,1 C 0,0 km/h (0 Bft)
12.01.2015 12:15 3,1 C 61 % 1025,1 hPa 0,0 l/m 0,5 km/h (0 Bft) O-SO 112 -3,7 C 4,1 C 0,0 km/h (0 Bft)
12.01.2015 12:20 3,1 C 59 % 1024,8 hPa 0,0 l/m 0,8 km/h (0 Bft) NO 45 -4,1 C 3,9 C 0,0 km/h (0 Bft)
12.01.2015 12:25 3,3 C 60 % 1024,8 hPa 0,0 l/m 0,5 km/h (0 Bft) NO 45 -3,7 C 3,9 C 0,0 km/h (0 Bft)
12.01.2015 12:30 3,3 C 59 % 1024,8 hPa 0,0 l/m 1,0 km/h (0 Bft) NO 45 -3,9 C 4,1 C 0,0 km/h (0 Bft)
12.01.2015 12:35 3,4 C 60 % 1024,8 hPa 0,0 l/m 0,8 km/h (0 Bft) NO 45 -3,6 C 4,1 C 0,0 km/h (0 Bft)
12.01.2015 12:40 3,6 C 59 % 1024,8 hPa 0,0 l/m 0,3 km/h (0 Bft) O-NO 67 -3,6 C 4,3 C 0,0 km/h (0 Bft)
12.01.2015 12:45 3,6 C 59 % 1024,8 hPa 0,0 l/m 0,6 km/h (0 Bft) NW 315 -3,6 C 4,4 C 3,1 km/h (1 Bft)
12.01.2015 12:50 3,9 C 59 % 1024,8 hPa 0,0 l/m 0,5 km/h (0 Bft) N-NO 22 -3,4 C 4,7 C 0,0 km/h (0 Bft)
12.01.2015 12:55 3,4 C 58 % 1024,8 hPa 0,0 l/m 1,0 km/h (0 Bft) N-NO 22 -4,1 C 4,6 C 2,4 km/h (1 Bft)
12.01.2015 13:00 3,2 C 60 % 1024,8 hPa 0,0 l/m 1,3 km/h (1 Bft) O-NO 67 -3,8 C 4,1 C 0,0 km/h (0 Bft)
12.01.2015 13:05 3,6 C 60 % 1024,8 hPa 0,0 l/m 1,0 km/h (0 Bft) O-NO 67 -3,4 C 4,1 C 0,0 km/h (0 Bft)
12.01.2015 13:10 4,1 C 59 % 1024,8 hPa 0,0 l/m 0,2 km/h (0 Bft) NO 45 -3,2 C 4,7 C 0,0 km/h (0 Bft)
12.01.2015 13:15 3,9 C 59 % 1024,8 hPa 0,0 l/m 0,2 km/h (0 Bft) NO 45 -3,4 C 4,8 C 0,0 km/h (0 Bft)
12.01.2015 13:20 4,4 C 60 % 1024,4 hPa 0,0 l/m 0,2 km/h (0 Bft) NO 45 -2,7 C 5,0 C 0,0 km/h (0 Bft)
12.01.2015 13:25 4,2 C 59 % 1024,4 hPa 0,0 l/m 0,2 km/h (0 Bft) NW 315 -3,1 C 5,2 C 2,9 km/h (1 Bft)
12.01.2015 13:30 3,7 C 59 % 1024,4 hPa 0,0 l/m 1,1 km/h (1 Bft) W-NW 292 -3,6 C 4,8 C 2,1 km/h (1 Bft)
12.01.2015 13:35 3,6 C 59 % 1024,4 hPa 0,0 l/m 1,1 km/h (1 Bft) W-NW 292 -3,6 C 4,5 C 0,0 km/h (0 Bft)
12.01.2015 13:40 4,0 C 59 % 1024,1 hPa 0,0 l/m 0,2 km/h (0 Bft) W-NW 292 -3,3 C 4,5 C 0,0 km/h (0 Bft)
12.01.2015 13:45 4,5 C 60 % 1024,1 hPa 0,0 l/m 0,0 km/h (0 Bft) W-NW 292 -2,6 C 4,7 C 0,0 km/h (0 Bft)
12.01.2015 13:50 4,0 C 58 % 1024,1 hPa 0,0 l/m 1,0 km/h (0 Bft) W-NW 292 -3,5 C 4,8 C 2,6 km/h (1 Bft)
12.01.2015 13:55 4,1 C 59 % 1024,1 hPa 0,0 l/m 1,4 km/h (1 Bft) W-NW 292 -3,2 C 4,8 C 2,9 km/h (1 Bft)
12.01.2015 14:00 4,3 C 59 % 1023,7 hPa 0,0 l/m 1,3 km/h (1 Bft) W-NW 292 -3,0 C 4,8 C 1,6 km/h (1 Bft)
12.01.2015 14:05 4,4 C 59 % 1023,7 hPa 0,0 l/m 1,0 km/h (0 Bft) W 270 -2,9 C 4,8 C 2,6 km/h (1 Bft)
12.01.2015 14:10 4,6 C 59 % 1023,7 hPa 0,0 l/m 1,6 km/h (1 Bft) W 270 -2,7 C 5,0 C 2,4 km/h (1 Bft)
12.01.2015 14:15 5,5 C 55 % 1023,7 hPa 0,0 l/m 2,9 km/h (1 Bft) W 270 -2,8 C 5,4 C 5,8 km/h (2 Bft)
12.01.2015 14:20 6,1 C 48 % 1023,4 hPa 0,0 l/m 4,3 km/h (1 Bft) W-SW 247 -4,1 C 5,6 C 11,4 km/h (2 Bft)
12.01.2015 14:25 6,5 C 44 % 1023,4 hPa 0,0 l/m 5,1 km/h (1 Bft) W-SW 247 -4,9 C 5,8 C 6,1 km/h (2 Bft)
12.01.2015 14:30 6,9 C 41 % 1023,4 hPa 0,0 l/m 6,4 km/h (2 Bft) W 270 -5,4 C 6,0 C 11,7 km/h (2 Bft)
12.01.2015 14:35 6,8 C 40 % 1023,4 hPa 0,0 l/m 6,3 km/h (2 Bft) W-SW 247 -5,8 C 6,2 C 5,8 km/h (2 Bft)
12.01.2015 14:40 6,9 C 40 % 1023,6 hPa 0,0 l/m 6,0 km/h (2 Bft) W-SW 247 -5,7 C 6,4 C 8,4 km/h (2 Bft)
12.01.2015 14:45 7,1 C 38 % 1023,6 hPa 0,0 l/m 6,0 km/h (2 Bft) W-SW 247 -6,2 C 6,4 C 6,4 km/h (2 Bft)
12.01.2015 14:50 7,0 C 38 % 1023,6 hPa 0,0 l/m 6,0 km/h (2 Bft) W-SW 247 -6,3 C 6,4 C 6,9 km/h (2 Bft)
12.01.2015 14:55 6,9 C 39 % 1023,6 hPa 0,0 l/m 5,6 km/h (1 Bft) W 270 -6,1 C 6,6 C 9,0 km/h (2 Bft)
12.01.2015 15:00 6,9 C 39 % 1023,6 hPa 0,0 l/m 6,0 km/h (2 Bft) SW 225 -6,1 C 6,4 C 5,6 km/h (1 Bft)
12.01.2015 15:05 6,9 C 38 % 1023,6 hPa 0,0 l/m 6,3 km/h (2 Bft) W-SW 247 -6,4 C 6,2 C 7,9 km/h (2 Bft)
12.01.2015 15:10 7,0 C 37 % 1023,6 hPa 0,0 l/m 6,9 km/h (2 Bft) W 270 -6,7 C 5,7 C 7,9 km/h (2 Bft)
12.01.2015 15:15 6,9 C 38 % 1023,6 hPa 0,0 l/m 7,1 km/h (2 Bft) W-SW 247 -6,4 C 5,3 C 7,6 km/h (2 Bft)
12.01.2015 15:20 6,8 C 38 % 1023,1 hPa 0,0 l/m 6,6 km/h (2 Bft) W-SW 247 -6,5 C 5,7 C 7,6 km/h (2 Bft)
12.01.2015 15:25 6,7 C 38 % 1023,1 hPa 0,0 l/m 6,8 km/h (2 Bft) W 270 -6,6 C 5,5 C 4,8 km/h (1 Bft)
12.01.2015 15:30 6,9 C 36 % 1023,1 hPa 0,0 l/m 7,6 km/h (2 Bft) W-SW 247 -7,1 C 4,4 C 9,8 km/h (2 Bft)
12.01.2015 15:35 6,9 C 36 % 1023,1 hPa 0,0 l/m 7,4 km/h (2 Bft) S 180 -7,1 C 4,7 C 8,5 km/h (2 Bft)
12.01.2015 15:40 6,7 C 37 % 1023,1 hPa 0,0 l/m 7,7 km/h (2 Bft) SW 225 -6,9 C 4,2 C 11,1 km/h (2 Bft)
12.01.2015 15:45 6,8 C 36 % 1023,1 hPa 0,0 l/m 8,0 km/h (2 Bft) NW 315 -7,2 C 3,9 C 8,7 km/h (2 Bft)
12.01.2015 15:50 6,8 C 36 % 1023,1 hPa 0,0 l/m 8,2 km/h (2 Bft) SW 225 -7,2 C 3,8 C 5,3 km/h (1 Bft)
12.01.2015 15:55 6,9 C 36 % 1023,1 hPa 0,0 l/m 8,0 km/h (2 Bft) W-SW 247 -7,1 C 3,9 C 8,7 km/h (2 Bft)
12.01.2015 16:00 7,0 C 34 % 1022,9 hPa 0,0 l/m 8,5 km/h (2 Bft) SW 225 -7,8 C 3,4 C 12,4 km/h (3 Bft)
12.01.2015 16:05 7,1 C 34 % 1022,9 hPa 0,0 l/m 8,7 km/h (2 Bft) W-SW 247 -7,7 C 3,4 C 14,3 km/h (3 Bft)
12.01.2015 16:10 6,8 C 35 % 1022,9 hPa 0,0 l/m 7,7 km/h (2 Bft) W-SW 247 -7,6 C 4,4 C 8,9 km/h (2 Bft)
12.01.2015 16:15 6,9 C 35 % 1022,9 hPa 0,0 l/m 7,1 km/h (2 Bft) W 270 -7,5 C 5,0 C 8,7 km/h (2 Bft)
12.01.2015 16:20 6,8 C 35 % 1023,2 hPa 0,0 l/m 7,4 km/h (2 Bft) SW 225 -7,6 C 4,6 C 7,9 km/h (2 Bft)
12.01.2015 16:25 6,9 C 34 % 1023,2 hPa 0,0 l/m 7,6 km/h (2 Bft) W-SW 247 -7,9 C 4,3 C 9,5 km/h (2 Bft)
12.01.2015 16:30 6,8 C 35 % 1023,2 hPa 0,0 l/m 7,1 km/h (2 Bft) SW 225 -7,6 C 4,8 C 7,9 km/h (2 Bft)
12.01.2015 16:35 6,7 C 35 % 1023,2 hPa 0,0 l/m 6,8 km/h (2 Bft) SW 225 -7,7 C 5,2 C 9,3 km/h (2 Bft)
12.01.2015 16:40 6,6 C 35 % 1023,1 hPa 0,0 l/m 6,3 km/h (2 Bft) W-SW 247 -7,7 C 5,6 C 6,4 km/h (2 Bft)
12.01.2015 16:45 6,6 C 34 % 1023,1 hPa 0,0 l/m 6,6 km/h (2 Bft) W-SW 247 -8,1 C 5,2 C 9,3 km/h (2 Bft)
12.01.2015 16:50 6,8 C 34 % 1023,1 hPa 0,0 l/m 7,2 km/h (2 Bft) W-SW 247 -7,9 C 4,7 C 6,9 km/h (2 Bft)
12.01.2015 16:55 6,8 C 34 % 1023,1 hPa 0,0 l/m 7,6 km/h (2 Bft) W 270 -7,9 C 4,1 C 6,3 km/h (2 Bft)
12.01.2015 17:00 6,8 C 33 % 1023,2 hPa 0,0 l/m 7,4 km/h (2 Bft) SW 225 -8,3 C 4,4 C 10,5 km/h (2 Bft)
12.01.2015 17:05 6,8 C 33 % 1023,2 hPa 0,0 l/m 7,6 km/h (2 Bft) W-SW 247 -8,3 C 4,0 C 10,5 km/h (2 Bft)
12.01.2015 17:10 6,7 C 33 % 1023,2 hPa 0,0 l/m 7,6 km/h (2 Bft) W-SW 247 -8,4 C 3,9 C 8,2 km/h (2 Bft)
12.01.2015 17:15 6,6 C 33 % 1023,2 hPa 0,0 l/m 7,2 km/h (2 Bft) W 270 -8,5 C 4,4 C 7,9 km/h (2 Bft)
12.01.2015 17:20 6,5 C 33 % 1022,8 hPa 0,0 l/m 6,9 km/h (2 Bft) W-SW 247 -8,6 C 4,6 C 11,6 km/h (2 Bft)
12.01.2015 17:25 6,8 C 33 % 1022,8 hPa 0,0 l/m 7,2 km/h (2 Bft) W 270 -8,3 C 4,4 C 6,8 km/h (2 Bft)
12.01.2015 17:30 6,7 C 32 % 1022,8 hPa 0,0 l/m 7,6 km/h (2 Bft) W-SW 247 -8,8 C 3,7 C 12,1 km/h (2 Bft)
12.01.2015 17:35 7,0 C 31 % 1022,8 hPa 0,0 l/m 7,2 km/h (2 Bft) W-SW 247 -8,9 C 4,4 C 15,1 km/h (3 Bft)
12.01.2015 17:40 6,8 C 32 % 1022,8 hPa 0,0 l/m 7,6 km/h (2 Bft) W-SW 247 -8,7 C 4,0 C 11,1 km/h (2 Bft)
12.01.2015 17:45 6,7 C 32 % 1022,8 hPa 0,0 l/m 7,2 km/h (2 Bft) W 270 -8,8 C 4,5 C 5,1 km/h (1 Bft)
12.01.2015 17:50 6,7 C 32 % 1022,8 hPa 0,0 l/m 6,9 km/h (2 Bft) W 270 -8,8 C 4,8 C 10,0 km/h (2 Bft)
12.01.2015 17:55 6,9 C 32 % 1022,8 hPa 0,0 l/m 6,6 km/h (2 Bft) W-SW 247 -8,6 C 5,0 C 6,4 km/h (2 Bft)
12.01.2015 18:00 6,8 C 32 % 1022,6 hPa 0,0 l/m 6,4 km/h (2 Bft) W-SW 247 -8,7 C 5,4 C 6,8 km/h (2 Bft)
12.01.2015 18:05 6,9 C 31 % 1022,6 hPa 0,0 l/m 6,3 km/h (2 Bft) W 270 -9,0 C 5,4 C 7,9 km/h (2 Bft)
12.01.2015 18:10 6,5 C 31 % 1022,6 hPa 0,0 l/m 5,8 km/h (2 Bft) S 180 -9,4 C 5,5 C 6,1 km/h (2 Bft)
12.01.2015 18:15 6,8 C 31 % 1022,6 hPa 0,0 l/m 6,0 km/h (2 Bft) W-SW 247 -9,1 C 5,4 C 7,1 km/h (2 Bft)
12.01.2015 18:20 7,2 C 31 % 1022,6 hPa 0,0 l/m 6,8 km/h (2 Bft) W-SW 247 -8,8 C 5,0 C 14,3 km/h (3 Bft)
12.01.2015 18:25 7,3 C 30 % 1022,6 hPa 0,0 l/m 7,4 km/h (2 Bft) W-SW 247 -9,1 C 4,4 C 9,2 km/h (2 Bft)
12.01.2015 18:30 7,1 C 30 % 1022,6 hPa 0,0 l/m 7,4 km/h (2 Bft) SW 225 -9,3 C 4,6 C 12,4 km/h (3 Bft)
12.01.2015 18:35 6,8 C 30 % 1022,6 hPa 0,0 l/m 6,8 km/h (2 Bft) SW 225 -9,5 C 5,2 C 6,1 km/h (2 Bft)
12.01.2015 18:40 6,7 C 31 % 1022,4 hPa 0,0 l/m 6,4 km/h (2 Bft) W-SW 247 -9,2 C 5,4 C 10,8 km/h (2 Bft)
12.01.2015 18:45 6,9 C 30 % 1022,4 hPa 0,0 l/m 6,4 km/h (2 Bft) W-SW 247 -9,4 C 5,3 C 7,7 km/h (2 Bft)
12.01.2015 18:50 6,8 C 30 % 1022,4 hPa 0,0 l/m 6,3 km/h (2 Bft) W 270 -9,5 C 5,3 C 7,1 km/h (2 Bft)
12.01.2015 18:55 6,7 C 30 % 1022,4 hPa 0,0 l/m 6,0 km/h (2 Bft) W 270 -9,6 C 5,4 C 9,2 km/h (2 Bft)
12.01.2015 19:00 6,7 C 30 % 1022,4 hPa 0,0 l/m 6,1 km/h (2 Bft) W-SW 247 -9,6 C 5,3 C 8,0 km/h (2 Bft)
12.01.2015 19:05 7,3 C 29 % 1022,4 hPa 0,0 l/m 6,9 km/h (2 Bft) W-NW 292 -9,5 C 4,8 C 10,1 km/h (2 Bft)
12.01.2015 19:10 7,4 C 28 % 1022,4 hPa 0,0 l/m 7,4 km/h (2 Bft) W-SW 247 -9,9 C 4,6 C 9,2 km/h (2 Bft)
12.01.2015 19:15 7,2 C 29 % 1022,4 hPa 0,0 l/m 7,1 km/h (2 Bft) SW 225 -9,6 C 5,1 C 5,3 km/h (1 Bft)
12.01.2015 19:20 7,4 C 28 % 1022,4 hPa 0,0 l/m 6,9 km/h (2 Bft) W 270 -9,9 C 5,3 C 11,3 km/h (2 Bft)
12.01.2015 19:25 7,1 C 29 % 1022,4 hPa 0,0 l/m 6,6 km/h (2 Bft) SW 225 -9,7 C 5,6 C 8,4 km/h (2 Bft)
12.01.2015 19:30 7,4 C 28 % 1022,4 hPa 0,0 l/m 6,8 km/h (2 Bft) W-SW 247 -9,9 C 5,2 C 8,2 km/h (2 Bft)
12.01.2015 19:35 7,1 C 28 % 1022,4 hPa 0,0 l/m 6,8 km/h (2 Bft) W-SW 247 -10,1 C 5,4 C 6,1 km/h (2 Bft)
12.01.2015 19:40 7,2 C 28 % 1022,4 hPa 0,0 l/m 6,8 km/h (2 Bft) SW 225 -10,1 C 5,2 C 9,2 km/h (2 Bft)
12.01.2015 19:45 7,2 C 28 % 1022,4 hPa 0,0 l/m 6,9 km/h (2 Bft) SW 225 -10,1 C 5,2 C 8,4 km/h (2 Bft)
12.01.2015 19:50 7,5 C 26 % 1022,4 hPa 0,0 l/m 7,6 km/h (2 Bft) SW 225 -10,7 C 4,6 C 10,3 km/h (2 Bft)
12.01.2015 19:55 7,4 C 26 % 1022,4 hPa 0,0 l/m 7,7 km/h (2 Bft) SW 225 -10,8 C 4,6 C 9,2 km/h (2 Bft)
12.01.2015 20:00 7,3 C 27 % 1022,6 hPa 0,0 l/m 7,6 km/h (2 Bft) W-SW 247 -10,4 C 4,6 C 7,1 km/h (2 Bft)
12.01.2015 20:05 7,0 C 28 % 1022,6 hPa 0,0 l/m 6,9 km/h (2 Bft) W 270 -10,2 C 5,2 C 8,9 km/h (2 Bft)
12.01.2015 20:10 6,8 C 28 % 1022,6 hPa 0,0 l/m 6,3 km/h (2 Bft) SW 225 -10,4 C 5,4 C 6,8 km/h (2 Bft)
12.01.2015 20:15 6,8 C 28 % 1022,6 hPa 0,0 l/m 6,0 km/h (2 Bft) W-SW 247 -10,4 C 5,3 C 6,4 km/h (2 Bft)
12.01.2015 20:20 7,0 C 27 % 1022,6 hPa 0,0 l/m 6,4 km/h (2 Bft) W-SW 247 -10,7 C 5,3 C 7,9 km/h (2 Bft)
12.01.2015 20:25 7,0 C 27 % 1022,6 hPa 0,0 l/m 6,6 km/h (2 Bft) SW 225 -10,7 C 5,0 C 10,3 km/h (2 Bft)
12.01.2015 20:30 7,0 C 27 % 1022,6 hPa 0,0 l/m 7,1 km/h (2 Bft) SW 225 -10,7 C 4,8 C 8,5 km/h (2 Bft)
12.01.2015 20:35 7,1 C 27 % 1022,6 hPa 0,0 l/m 7,4 km/h (2 Bft) W-SW 247 -10,6 C 4,4 C 6,3 km/h (2 Bft)
12.01.2015 20:40 7,0 C 26 % 1022,8 hPa 0,0 l/m 7,4 km/h (2 Bft) W-SW 247 -11,2 C 4,4 C 10,6 km/h (2 Bft)
12.01.2015 20:45 7,2 C 25 % 1022,8 hPa 0,0 l/m 7,4 km/h (2 Bft) SW 225 -11,5 C 4,4 C 9,5 km/h (2 Bft)
12.01.2015 20:50 7,3 C 26 % 1022,8 hPa 0,0 l/m 7,6 km/h (2 Bft) W-SW 247 -10,9 C 4,4 C 6,8 km/h (2 Bft)
12.01.2015 20:55 7,1 C 25 % 1022,8 hPa 0,0 l/m 7,2 km/h (2 Bft) SW 225 -11,6 C 4,7 C 7,6 km/h (2 Bft)
12.01.2015 21:00 7,0 C 25 % 1022,8 hPa 0,0 l/m 6,1 km/h (2 Bft) W-SW 247 -11,6 C 5,7 C 6,1 km/h (2 Bft)
12.01.2015 21:05 6,8 C 26 % 1022,8 hPa 0,0 l/m 6,0 km/h (2 Bft) SW 225 -11,3 C 5,4 C 6,9 km/h (2 Bft)
12.01.2015 21:10 6,8 C 26 % 1022,8 hPa 0,0 l/m 5,8 km/h (2 Bft) W-SW 247 -11,3 C 5,5 C 6,8 km/h (2 Bft)
12.01.2015 21:15 7,1 C 25 % 1022,8 hPa 0,0 l/m 6,1 km/h (2 Bft) W-SW 247 -11,6 C 5,4 C 7,2 km/h (2 Bft)
12.01.2015 21:20 7,2 C 25 % 1022,8 hPa 0,0 l/m 6,4 km/h (2 Bft) W-SW 247 -11,5 C 5,6 C 5,6 km/h (1 Bft)
12.01.2015 21:25 7,4 C 24 % 1022,8 hPa 0,0 l/m 6,6 km/h (2 Bft) SW 225 -11,8 C 5,4 C 7,9 km/h (2 Bft)
12.01.2015 21:30 7,5 C 23 % 1022,8 hPa 0,0 l/m 6,9 km/h (2 Bft) SW 225 -12,3 C 5,3 C 6,8 km/h (2 Bft)
12.01.2015 21:35 7,6 C 23 % 1022,8 hPa 0,0 l/m 7,2 km/h (2 Bft) SW 225 -12,2 C 5,1 C 8,2 km/h (2 Bft)
12.01.2015 21:40 7,2 C 23 % 1022,9 hPa 0,0 l/m 6,6 km/h (2 Bft) SW 225 -12,5 C 5,7 C 6,4 km/h (2 Bft)
12.01.2015 21:45 7,1 C 23 % 1022,9 hPa 0,0 l/m 5,8 km/h (2 Bft) W-SW 247 -12,6 C 5,8 C 7,2 km/h (2 Bft)
12.01.2015 21:50 7,1 C 23 % 1022,9 hPa 0,0 l/m 5,3 km/h (1 Bft) SW 225 -12,6 C 5,8 C 6,6 km/h (2 Bft)
12.01.2015 21:55 7,1 C 23 % 1022,9 hPa 0,0 l/m 5,6 km/h (1 Bft) S-SW 202 -12,6 C 5,7 C 7,4 km/h (2 Bft)
12.01.2015 22:00 7,1 C 23 % 1022,9 hPa 0,0 l/m 5,8 km/h (2 Bft) SW 225 -12,6 C 5,6 C 5,6 km/h (1 Bft)
12.01.2015 22:05 6,8 C 24 % 1022,9 hPa 0,0 l/m 5,5 km/h (1 Bft) W-SW 247 -12,3 C 5,6 C 5,5 km/h (1 Bft)
12.01.2015 22:10 6,2 C 24 % 1022,9 hPa 0,0 l/m 4,5 km/h (1 Bft) S 180 -12,8 C 5,7 C 4,3 km/h (1 Bft)
12.01.2015 22:15 6,3 C 24 % 1022,9 hPa 0,0 l/m 4,2 km/h (1 Bft) SW 225 -12,7 C 5,6 C 6,4 km/h (2 Bft)
12.01.2015 22:20 6,3 C 24 % 1023,0 hPa 0,0 l/m 4,5 km/h (1 Bft) SW 225 -12,7 C 5,4 C 4,0 km/h (1 Bft)
12.01.2015 22:25 6,6 C 23 % 1023,0 hPa 0,0 l/m 5,1 km/h (1 Bft) S-SW 202 -13,0 C 5,2 C 6,9 km/h (2 Bft)
12.01.2015 22:30 6,8 C 24 % 1023,0 hPa 0,0 l/m 5,8 km/h (2 Bft) S 180 -12,3 C 5,2 C 7,6 km/h (2 Bft)
12.01.2015 22:35 6,9 C 24 % 1023,0 hPa 0,0 l/m 6,3 km/h (2 Bft) SW 225 -12,2 C 5,1 C 5,6 km/h (1 Bft)
12.01.2015 22:40 6,0 C 25 % 1023,1 hPa 0,0 l/m 5,0 km/h (1 Bft) W-SW 247 -12,5 C 5,3 C 5,3 km/h (1 Bft)
12.01.2015 22:45 5,7 C 25 % 1023,1 hPa 0,0 l/m 4,2 km/h (1 Bft) W-SW 247 -12,8 C 5,2 C 2,7 km/h (1 Bft)
12.01.2015 22:50 5,9 C 24 % 1023,1 hPa 0,0 l/m 4,2 km/h (1 Bft) SW 225 -13,1 C 5,0 C 4,5 km/h (1 Bft)
12.01.2015 22:55 5,9 C 24 % 1023,1 hPa 0,0 l/m 4,5 km/h (1 Bft) W-SW 247 -13,1 C 4,8 C 7,4 km/h (2 Bft)
12.01.2015 23:00 5,6 C 25 % 1023,2 hPa 0,0 l/m 5,0 km/h (1 Bft) W-SW 247 -12,8 C 4,5 C 5,3 km/h (1 Bft)
12.01.2015 23:05 5,3 C 26 % 1023,2 hPa 0,0 l/m 4,8 km/h (1 Bft) S 180 -12,6 C 4,3 C 4,3 km/h (1 Bft)
12.01.2015 23:10 4,9 C 26 % 1023,2 hPa 0,0 l/m 4,3 km/h (1 Bft) SW 225 -13,0 C 4,1 C 6,0 km/h (2 Bft)
12.01.2015 23:15 4,8 C 26 % 1023,2 hPa 0,0 l/m 4,2 km/h (1 Bft) SW 225 -13,0 C 3,8 C 3,9 km/h (1 Bft)
12.01.2015 23:20 3,9 C 30 % 1023,1 hPa 0,0 l/m 3,4 km/h (1 Bft) W-SW 247 -12,1 C 3,7 C 3,4 km/h (1 Bft)
12.01.2015 23:25 3,6 C 30 % 1023,1 hPa 0,0 l/m 3,4 km/h (1 Bft) SW 225 -12,3 C 3,1 C 4,5 km/h (1 Bft)
12.01.2015 23:30 4,0 C 30 % 1023,1 hPa 0,0 l/m 5,0 km/h (1 Bft) S 180 -12,0 C 2,3 C 7,1 km/h (2 Bft)
12.01.2015 23:35 4,3 C 30 % 1023,1 hPa 0,0 l/m 6,3 km/h (2 Bft) SW 225 -11,7 C 2,0 C 6,9 km/h (2 Bft)
12.01.2015 23:40 4,6 C 30 % 1023,4 hPa 0,0 l/m 6,9 km/h (2 Bft) SW 225 -11,4 C 1,5 C 9,7 km/h (2 Bft)
12.01.2015 23:45 4,9 C 30 % 1023,4 hPa 0,0 l/m 6,9 km/h (2 Bft) SW 225 -11,2 C 1,8 C 7,9 km/h (2 Bft)
12.01.2015 23:50 4,8 C 30 % 1023,4 hPa 0,0 l/m 6,9 km/h (2 Bft) S-SW 202 -11,3 C 2,0 C 5,8 km/h (2 Bft)
12.01.2015 23:55 4,8 C 30 % 1023,4 hPa 0,0 l/m 6,6 km/h (2 Bft) SW 225 -11,3 C 2,4 C 8,9 km/h (2 Bft)
_ Min-Zeit 08:05 22:25 19:55 - 13:45 - - 22:55 00:30 13:45
Minimum _ -0,8 C 23 % 1022,4 hPa - 0,0 km/h (0 Bft) - - -13,1 C -11,2 C 0,0 km/h (0 Bft)
_ Max-Zeit 21:35 01:15 04:35 23:55 04:45 - - 13:45 14:55 02:20
Maximum _ 7,6 C 85 % 1027,5 hPa 0,0 l/m 13,7 km/h
W (3 Bft)
- - -2,6 C 6,6 C 35,7 km/h
W (5 Bft)
Durchschnitt _ 3,1 C 55 % 1025,0 hPa #0,0 l/m 6,1 km/h (2 Bft) W-SW - -6,2 C 0,2 C 7,7 km/h (2 Bft)